This is the latest recevied weather packets stored in our database for station/object KQ4LLM. If no packets are shown the sender has not sent any weather packets the latest 10 day(s).
| Time | Temp. | Humidity | Pressure | Rain* | Wind** | Luminosity | Snow |
|---|---|---|---|---|---|---|---|
| 1777747063 | 16.67° C | 59% | - | 0 mm | - | - | - |
| 1777746759 | 16.67° C | 62% | - | 0 mm | - | - | - |
| 1777746454 | 16.67° C | 64% | - | 0 mm | - | - | - |
| 1777746149 | 16.11° C | 65% | - | 0 mm | - | - | - |
| 1777745846 | 15.56° C | 65% | - | 0 mm | - | - | - |
| 1777745546 | 16.11° C | 66% | - | 0 mm | - | - | - |
| 1777745242 | 16.11° C | 66% | - | 0 mm | - | - | - |
| 1777744934 | 15.56° C | 69% | - | 0 mm | - | - | - |
| 1777744633 | 15.56° C | 67% | - | 0 mm | - | - | - |
| 1777744323 | 16.11° C | 65% | - | 0 mm | - | - | - |
| 1777744020 | 16.67° C | 66% | - | 0 mm | - | - | - |
| 1777743716 | 16.67° C | 66% | - | 0 mm | - | - | - |
| 1777743414 | 16.67° C | 67% | - | 0 mm | - | - | - |
| 1777743112 | 16.11° C | 69% | - | 0 mm | - | - | - |
| 1777742810 | 16.11° C | 68% | - | 0 mm | - | - | - |
| 1777742505 | 16.11° C | 69% | - | 0 mm | - | - | - |
| 1777742201 | 15° C | 70% | - | 0 mm | - | - | - |
| 1777741898 | 15° C | 72% | - | 0 mm | - | - | - |
| 1777741596 | 15° C | 70% | - | 0 mm | - | - | - |
| 1777741292 | 14.44° C | 72% | - | 0 mm | - | - | - |
| 1777740989 | 14.44° C | 72% | - | 0 mm | - | - | - |
| 1777740685 | 14.44° C | 74% | - | 0 mm | - | - | - |
| 1777740381 | 14.44° C | 72% | - | 0 mm | - | - | - |
| 1777740078 | 15° C | 71% | - | 0 mm | - | - | - |
| 1777739774 | 14.44° C | 73% | - | 0 mm | - | - | - |
* Rain latest hour (hover to see other rain measurements)
** Current wind speed in m/s (hover to see current wind gust speed)